Tracking 20093 objects as of 14-Dec-2019
HD Live streaming from Space Station
objects crossing your sky now

FENGYUN 1C DEB

Track FENGYUN 1C DEB now!
10-day predictions


NORAD ID: 30342
Int'l Code: 1999-025ABD
Perigee: 854.3 km
Apogee: 1,111.5 km
Inclination: 100.2 °
Period: 104.6 minutes
Semi major axis: 7353 km
RCS: 0.0538 m2 (small)
Launch date: May 10, 1999
Source: People's Republic of China (PRC)
Launch site: Taiyaun Space Center, China (TSC)

Note: This is SATELLITE DEBRIS
aabbcc
Your satellite tracking list
Your tracking list is empty




NASA's NSSDC Master Catalog

Two Line Element Set (TLE):
1 30342U 99025ABD 19347.52370725 +.00000133 +00000-0 +16806-3 0  9993
2 30342 100.2045 343.5175 0174890 338.2989 136.4714 13.76658445647153
Source of the keplerian elements: AFSPC